Starlink 5352

operational
NORAD ID: 56426 Int'l Des: 2023-061 Owner: SPXS Country: US Constellation: starlink
LEOCIRCULAR

Über Starlink 5352

Beschreibung wird geladen...

Live-Position

3D-Globus wird geladen...

Nächste Überflüge

Höhenverlauf

Altitude vs Time

uPlot chart will show altitude changes over time

Zweizeiliger Elementsatz

1 56426U 23061BE 25307.55483431 .00000591 00000-0 58828-4 0 9995
2 56426 43.0029 137.4253 0001235 266.6728 93.3973 15.02538030138076
Epoch: 3. Nov. 2025 • Age: 14 hours

Aktueller Status

Höhe 565.5 km
Geschwindigkeit 7.58 km/s
Subsatellitenpunkt -27.43°S, 101.66°W
Startdatum 4. Mai 2023
Alter 2.5 years
Typ internet

Technische Details

Klassifizierung Payload
Masse 305.00 kg
Trockenmasse 290.00 kg
Gesamtmasse 305.00 kg
Länge 0.20 m
Durchmesser 2.80 m
Spannweite 9.00 m
Form Box + pan
Hersteller SPXS
Bus-Typ Starlink
Phasenstatus In Orbit
Besitzer/Staat SPXS/US

Große Konstellationen

Loading constellations...